FW9330 Weather Reports


time (UTC)temp
C
wind
direction
speed
KPH
gust
KPH
rain 1hr
cm
rain 24hr
cm
rain mn
cm
humidity
%
barometer
mb
20260507164331 12 244 3.2 3.2 0.00 0.00 0.00 54 1013.2
20260507163828 12 222 1.6 3.2 0.00 0.00 0.00 52 1013.3
20260507163325 12 269 1.6 1.6 0.00 0.00 0.00 52 1013.2
20260507162821 12 234 1.6 3.2 0.00 0.00 0.00 52 1013.1
20260507162317 12 214 8.0 11.3 0.00 0.00 0.00 50 1013.4
20260507161815 13 209 3.2 4.8 0.00 0.00 0.00 47 1013.2
20260507161311 13 246 4.8 8.0 0.00 0.00 0.00 48 1013.1
20260507160808 12 268 4.8 4.8 0.00 0.00 0.00 50 1013.3
20260507160304 12 213 3.2 3.2 0.00 0.00 0.00 51 1013.5
20260507155759 12 240 4.8 9.7 0.00 0.00 0.00 50 1013.4
20260507155256 12 267 6.4 9.7 0.00 0.00 0.00 50 1013.5
20260507154752 11 214 8.0 11.3 0.00 0.00 0.00 49 1013.3
20260507154250 10 81 3.2 3.2 0.00 0.00 0.00 55 1013.5
20260507153746 10 300 3.2 8.0 0.00 0.00 0.00 53 1013.3
20260507153243 10 328 3.2 3.2 0.00 0.00 0.00 55 1013.5
20260507152739 10 103 3.2 4.8 0.00 0.00 0.00 55 1013.7
20260507152236 12 297 1.6 1.6 0.00 0.00 0.00 51 1013.6
20260507151732 11 242 0.0 1.6 0.00 0.00 0.00 51 1013.7
20260507151228 11 214 6.4 9.7 0.00 0.00 0.00 50 1013.9
20260507150725 11 264 3.2 4.8 0.00 0.00 0.00 51 1013.9
20260507150222 11 323 1.6 1.6 0.00 0.00 0.00 52 1013.9
20260507145718 11 157 4.8 4.8 0.00 0.00 0.00 48 1013.9
20260507145215 10 279 1.6 3.2 0.00 0.00 0.00 53 1014.2
20260507144712 10 26 3.2 4.8 0.00 0.00 0.00 53 1014.2
20260507144210 10 306 3.2 4.8 0.00 0.00 0.00 53 1014.1
20260507143706 10 332 1.6 3.2 0.00 0.00 0.00 53 1014.3
20260507143203 11 331 4.8 4.8 0.00 0.00 0.00 54 1014.3
20260507142659 10 292 6.4 9.7 0.00 0.00 0.00 54 1014.2
20260507142156 11 252 3.2 3.2 0.00 0.00 0.00 52 1014.4
20260507141652 10 218 3.2 3.2 0.00 0.00 0.00 56 1014.6
20260507141149 10 247 1.6 1.6 0.00 0.00 0.00 56 1014.6
20260507140645 10 275 1.6 3.2 0.00 0.00 0.00 56 1014.6
20260507140143 10 306 0.0 1.6 0.00 0.00 0.00 60 1014.5
20260507135640 10 22 4.8 4.8 0.00 0.00 0.00 57 1014.9
20260507135137 9 270 4.8 4.8 0.00 0.00 0.00 58 1014.8
20260507134633 10 286 1.6 3.2 0.00 0.00 0.00 56 1014.9
20260507134130 10 309 1.6 1.6 0.00 0.00 0.00 61 1014.8
20260507133625 9 284 3.2 3.2 0.00 0.00 0.00 59 1015.0
20260507133123 10 327 3.2 3.2 0.00 0.00 0.00 55 1014.9
20260507132620 10 250 1.6 1.6 0.00 0.00 0.00 57 1014.5
20260507132116 10 227 3.2 4.8 0.00 0.00 0.00 56 1014.6
20260507131613 10 253 1.6 3.2 0.00 0.00 0.00 57 1014.8
20260507131111 9 265 0.0 0.0 0.00 0.00 0.00 58 1014.9
20260507130607 8 268 1.6 3.2 0.00 0.00 0.00 61 1015.0
20260507130106 9 241 3.2 3.2 0.00 0.00 0.00 60 1014.9
20260507125604 8 264 0.0 0.0 0.00 0.00 0.00 62 1014.8
20260507125101 8 250 1.6 1.6 0.00 0.00 0.00 65 1015.0
20260507124557 8 287 1.6 3.2 0.00 0.00 0.00 65 1015.0
20260507124055 7 262 1.6 1.6 0.00 0.00 0.00 67 1014.9
20260507123553 7 264 0.0 1.6 0.00 0.00 0.00 67 1015.0
20260507123050 6 273 1.6 3.2 0.00 0.00 0.00 70 1015.3
20260507122545 6 272 0.0 0.0 0.00 0.00 0.00 73 1015.1
20260507122041 6 269 0.0 0.0 0.00 0.00 0.00 73 1015.0
20260507121537 5 256 1.6 1.6 0.00 0.00 0.00 73 1015.1
20260507121033 5 266 0.0 1.6 0.00 0.00 0.00 75 1014.6
20260507120529 5 278 0.0 1.6 0.00 0.00 0.00 75 1014.6
20260507120026 5 277 0.0 0.0 0.00 0.00 0.00 75 1014.5
20260507115522 4 240 0.0 1.6 0.00 0.00 0.00 79 1014.8
20260507115018 4 270 0.0 0.0 0.00 0.00 0.00 80 1014.9
20260507114514 4 269 0.0 1.6 0.00 0.00 0.00 80 1014.8
20260507114012 3 228 1.6 3.2 0.00 0.00 0.00 80 1014.6
20260507113509 3 262 0.0 0.0 0.00 0.00 0.00 82 1014.6
20260507113006 3 262 0.0 0.0 0.00 0.00 0.00 82 1014.4
20260507112503 3 268 0.0 0.0 0.00 0.00 0.00 83 1014.4
20260507112000 2 270 0.0 0.0 0.00 0.00 0.00 85 1014.3
20260507111457 2 263 0.0 1.6 0.00 0.00 0.00 87 1014.3
20260507110953 2 261 0.0 0.0 0.00 0.00 0.00 88 1014.2
20260507110450 2 267 0.0 0.0 0.00 0.00 0.00 89 1014.3
20260507105946 2 262 0.0 0.0 0.00 0.00 0.00 90 1014.2
20260507105443 2 262 0.0 0.0 0.00 0.00 0.00 92 1014.3
20260507104940 1 269 0.0 0.0 0.00 0.00 0.00 93 1014.1
20260507104437 1 262 0.0 0.0 0.00 0.00 0.00 94 1014.1
20260507103933 1 271 0.0 0.0 0.00 0.00 0.00 94 1014.2
20260507103430 1 271 0.0 0.0 0.00 0.00 0.00 94 1013.9
20260507102926 1 271 0.0 0.0 0.00 0.00 0.00 93 1013.9
20260507102423 1 271 0.0 0.0 0.00 0.00 0.00 93 1013.9
20260507101919 1 269 0.0 0.0 0.00 0.00 0.00 93 1014.0
20260507101414 1 269 0.0 0.0 0.00 0.00 0.00 92 1013.8
20260507100911 1 269 0.0 0.0 0.00 0.00 0.00 92 1013.8
20260507100409 1 269 0.0 0.0 0.00 0.00 0.00 91 1013.8
20260507095907 1 264 0.0 0.0 0.00 0.00 0.00 91 1013.8
20260507095403 2 268 0.0 0.0 0.00 0.00 0.00 90 1013.7
20260507094901 2 268 0.0 0.0 0.00 0.00 0.00 89 1013.9
20260507094357 2 271 0.0 0.0 0.00 0.00 0.00 89 1013.9
20260507093854 2 261 0.0 1.6 0.00 0.00 0.00 89 1014.0
20260507093352 2 262 0.0 0.0 0.00 0.00 0.00 88 1013.8
20260507092850 2 262 0.0 0.0 0.00 0.00 0.00 88 1014.0
20260507092346 2 262 0.0 0.0 0.00 0.00 0.00 88 1013.7
20260507091843 2 262 0.0 0.0 0.00 0.00 0.00 88 1014.1
20260507091339 2 262 0.0 0.0 0.00 0.00 0.00 88 1014.0
20260507090835 2 262 0.0 0.0 0.00 0.00 0.00 88 1013.8
20260507090331 2 262 0.0 0.0 0.00 0.00 0.00 88 1013.9
20260507085828 2 262 0.0 0.0 0.00 0.00 0.00 88 1013.8
20260507085325 2 262 0.0 0.0 0.00 0.00 0.00 88 1014.0
20260507084823 2 262 0.0 0.0 0.00 0.00 0.00 87 1014.0
20260507084319 3 262 0.0 0.0 0.00 0.00 0.00 87 1014.1
20260507083816 3 262 0.0 0.0 0.00 0.00 0.00 87 1014.0
20260507083313 3 262 0.0 0.0 0.00 0.00 0.00 88 1014.0
20260507082809 3 262 0.0 0.0 0.00 0.00 0.00 88 1013.8
20260507082306 3 262 0.0 0.0 0.00 0.00 0.00 88 1013.8
20260507081802 3 262 0.0 0.0 0.00 0.00 0.00 88 1013.9
20260507081257 3 262 0.0 0.0 0.00 0.00 0.00 86 1013.8
20260507080755 4 262 0.0 0.0 0.00 0.00 0.00 85 1014.0
20260507080251 4 262 0.0 0.0 0.00 0.00 0.00 84 1014.1
20260507075746 5 262 0.0 0.0 0.00 0.00 0.00 82 1014.1
20260507075242 5 262 0.0 0.0 0.00 0.00 0.00 81 1014.3
20260507074739 5 262 0.0 0.0 0.00 0.00 0.00 80 1014.1
20260507074237 5 262 0.0 0.0 0.00 0.00 0.00 81 1014.1
20260507073733 5 262 0.0 0.0 0.00 0.00 0.00 80 1013.8
20260507073230 5 262 0.0 0.0 0.00 0.00 0.00 79 1013.9
20260507072728 5 262 0.0 0.0 0.00 0.00 0.00 79 1014.0
20260507072225 5 250 1.6 1.6 0.00 0.00 0.00 78 1014.0
20260507071723 5 267 0.0 0.0 0.00 0.00 0.00 78 1014.0
20260507071219 5 267 0.0 0.0 0.00 0.00 0.00 78 1014.1
20260507070716 5 267 0.0 0.0 0.00 0.00 0.00 77 1014.0
20260507070213 5 267 0.0 0.0 0.00 0.00 0.00 77 1014.1
20260507065709 5 277 0.0 0.0 0.00 0.00 0.00 75 1013.9
20260507065206 5 261 0.0 0.0 0.00 0.00 0.00 77 1014.0
20260507064703 5 279 0.0 0.0 0.00 0.00 0.00 76 1013.9
20260507064202 5 282 0.0 0.0 0.00 0.00 0.00 77 1013.7
20260507063700 5 273 0.0 0.0 0.00 0.00 0.00 77 1014.2
20260507063156 5 272 0.0 0.0 0.00 0.00 0.00 78 1014.0
20260507062653 5 278 0.0 1.6 0.00 0.00 0.00 79 1014.1
20260507062150 5 281 3.2 3.2 0.00 0.00 0.00 80 1014.2
20260507061648 5 269 3.2 3.2 0.00 0.00 0.00 80 1014.3
20260507061146 5 271 1.6 1.6 0.00 0.00 0.00 81 1014.2
20260507060644 5 271 0.0 0.0 0.00 0.00 0.00 81 1014.2
20260507060140 5 271 0.0 0.0 0.00 0.00 0.00 81 1014.4
20260507055635 5 270 0.0 0.0 0.00 0.00 0.00 80 1014.4
20260507055132 5 270 0.0 0.0 0.00 0.00 0.00 79 1014.3
20260507054627 5 270 0.0 0.0 0.00 0.00 0.00 79 1014.6
20260507054125 5 270 0.0 0.0 0.00 0.00 0.00 79 1014.5
20260507053623 5 270 0.0 0.0 0.00 0.00 0.00 79 1014.5
20260507053121 5 270 0.0 0.0 0.00 0.00 0.00 78 1014.3
20260507052619 5 270 0.0 0.0 0.00 0.00 0.00 78 1014.2
20260507052115 5 271 0.0 0.0 0.00 0.00 0.00 78 1014.3
20260507051613 5 271 0.0 0.0 0.00 0.00 0.00 77 1014.4
20260507051109 5 269 1.6 3.2 0.00 0.00 0.00 78 1014.8
20260507050606 5 271 0.0 0.0 0.00 0.00 0.00 77 1014.4
20260507045559 6 269 1.6 1.6 0.00 0.00 0.00 76 1014.5
20260507045056 6 270 0.0 1.6 0.00 0.00 0.00 76 1014.5
20260507044553 6 271 0.0 1.6 0.00 0.00 0.00 78 1014.5
20260507044050 6 269 1.6 1.6 0.00 0.00 0.00 78 1014.8
20260507043545 6 270 0.0 0.0 0.00 0.00 0.00 79 1014.9
20260507043043 6 271 0.0 0.0 0.00 0.00 0.00 79 1014.6
20260507042539 6 270 0.0 0.0 0.00 0.00 0.00 79 1014.5
20260507042035 6 271 0.0 0.0 0.00 0.00 0.00 77 1014.6
20260507041532 6 272 0.0 1.6 0.00 0.00 0.00 80 1014.9
20260507041029 6 269 0.0 0.0 0.00 0.00 0.00 78 1014.5
20260507040525 6 271 0.0 0.0 0.00 0.00 0.00 79 1014.8
20260507040021 6 272 0.0 0.0 0.00 0.51 0.51 77 1014.5
20260507035517 6 267 0.0 0.0 0.00 0.51 0.51 77 1014.9
20260507035014 6 272 0.0 0.0 0.00 0.51 0.51 79 1014.6
20260507034511 6 268 0.0 0.0 0.00 0.51 0.51 81 1014.3
20260507034009 6 261 1.6 1.6 0.00 0.51 0.51 80 1014.3
20260507033507 6 270 0.0 0.0 0.00 0.51 0.51 81 1014.0
20260507033004 6 274 0.0 0.0 0.00 0.51 0.51 80 1014.1
20260507032500 6 278 0.0 0.0 0.00 0.51 0.51 81 1014.2
20260507031956 6 274 0.0 0.0 0.00 0.51 0.51 80 1014.3
20260507031453 6 269 1.6 1.6 0.00 0.51 0.51 80 1014.4
20260507030950 6 271 0.0 1.6 0.00 0.51 0.51 79 1014.4
20260507030447 6 256 0.0 0.0 0.00 0.51 0.51 78 1014.4
20260507025944 7 225 3.2 3.2 0.00 0.51 0.51 78 1014.0
20260507025441 7 319 1.6 1.6 0.00 0.51 0.51 78 1014.3
20260507024939 7 324 0.0 1.6 0.00 0.51 0.51 81 1014.5
20260507024436 7 172 1.6 3.2 0.00 0.51 0.51 81 1014.3
20260507023932 7 309 1.6 3.2 0.00 0.51 0.51 82 1014.3
20260507023429 7 286 0.0 0.0 0.00 0.51 0.51 83 1014.0
20260507022926 7 284 1.6 3.2 0.00 0.51 0.51 83 1013.9
20260507022423 7 301 3.2 3.2 0.00 0.51 0.51 84 1013.9
20260507021919 7 330 1.6 1.6 0.00 0.51 0.51 84 1013.8
20260507021414 7 271 1.6 1.6 0.00 0.51 0.51 86 1013.7
20260507020912 7 261 4.8 4.8 0.00 0.51 0.51 86 1013.5
20260507020409 7 287 0.0 0.0 0.00 0.51 0.51 88 1013.7
20260507015906 7 280 1.6 1.6 0.00 0.51 0.51 88 1013.4
20260507015404 7 217 1.6 3.2 0.00 0.51 0.51 88 1013.4
20260507014900 7 294 1.6 1.6 0.00 0.51 0.51 89 1013.7
20260507014356 7 342 6.4 8.0 0.00 0.51 0.51 91 1013.6
20260507013853 7 289 0.0 0.0 0.00 0.51 0.51 93 1013.6
20260507013350 7 288 1.6 1.6 0.00 0.51 0.51 94 1013.5
20260507012848 7 325 3.2 3.2 0.00 0.51 0.51 94 1013.5
20260507012343 7 300 1.6 1.6 0.00 0.51 0.51 95 1013.5
20260507011841 7 264 0.0 0.0 0.00 0.51 0.51 94 1014.1
20260507011337 7 263 1.6 1.6 0.00 0.51 0.51 94 1013.9
20260507010832 7 255 1.6 3.2 0.00 0.51 0.51 94 1014.2
20260507010328 7 278 0.0 1.6 0.00 0.51 0.51 94 1014.0
20260507005825 8 248 3.2 4.8 0.00 0.51 0.51 94 1014.0
20260507005322 8 261 0.0 0.0 0.00 0.51 0.51 94 1014.1
20260507004819 8 280 0.0 1.6 0.00 0.51 0.51 94 1014.0
20260507004316 8 260 0.0 0.0 0.00 0.51 0.51 94 1014.3
20260507003813 8 268 0.0 1.6 0.00 0.51 0.51 94 1014.1
20260507003308 8 254 0.0 0.0 0.00 0.51 0.51 95 1014.1
20260507002803 8 265 0.0 0.0 0.00 0.51 0.51 94 1013.8
20260507002300 8 254 0.0 1.6 0.00 0.51 0.51 94 1013.7
20260507001757 8 282 0.0 1.6 0.00 0.51 0.51 94 1013.5
20260507001254 8 270 0.0 0.0 0.00 0.51 0.51 94 1013.9
20260507000750 8 256 4.8 4.8 0.00 0.51 0.51 94 1013.7
20260507000246 8 261 0.0 1.6 0.00 0.51 0.51 94 1013.8
20260506235743 8 263 1.6 1.6 0.00 0.51 0.51 94 1013.7
20260506235238 8 257 1.6 3.2 0.00 0.51 0.51 94 1013.3
20260506234736 8 252 1.6 1.6 0.00 0.51 0.51 94 1013.1
20260506234233 8 257 0.0 1.6 0.00 0.51 0.51 94 1013.2
20260506233730 8 261 1.6 1.6 0.00 0.51 0.51 93 1013.3
20260506233227 8 291 0.0 1.6 0.00 0.51 0.51 93 1013.2
20260506232724 8 261 0.0 1.6 0.00 0.51 0.51 92 1012.7
20260506232218 8 294 1.6 1.6 0.00 0.51 0.51 92 1012.6
20260506231716 8 274 0.0 0.0 0.00 0.51 0.51 93 1012.5
20260506231214 8 257 1.6 1.6 0.00 0.51 0.51 93 1012.8
20260506230710 8 208 3.2 3.2 0.00 0.51 0.51 92 1012.6
20260506230208 8 290 0.0 1.6 0.00 0.51 0.51 93 1012.8
20260506225704 8 268 0.0 1.6 0.00 0.51 0.51 92 1012.6
20260506225201 8 266 1.6 1.6 0.00 0.51 0.51 94 1012.8
20260506224657 8 254 3.2 3.2 0.00 0.51 0.51 93 1012.7
20260506224154 8 297 1.6 1.6 0.00 0.51 0.51 93 1012.7
20260506223650 8 262 1.6 3.2 0.00 0.51 0.51 93 1012.5
20260506223146 8 290 1.6 3.2 0.00 0.51 0.51 95 1012.6
20260506222643 8 284 0.0 1.6 0.00 0.51 0.51 96 1012.8
20260506222139 8 226 0.0 0.0 0.00 0.51 0.51 96 1012.7
20260506221637 8 307 0.0 1.6 0.00 0.51 0.51 97 1012.6
20260506221135 8 294 1.6 3.2 0.00 0.51 0.51 96 1012.7
20260506220632 8 287 0.0 0.0 0.00 0.51 0.51 96 1012.4
20260506220127 8 261 0.0 1.6 0.00 0.51 0.51 96 1012.6
20260506215624 8 264 1.6 1.6 0.00 0.51 0.51 97 1012.2
20260506215119 8 247 1.6 1.6 0.00 0.51 0.51 96 1012.2
20260506214616 8 334 1.6 3.2 0.00 0.51 0.51 96 1012.0
20260506214114 8 246 3.2 4.8 0.00 0.51 0.51 96 1012.4
20260506213612 9 269 3.2 3.2 0.00 0.51 0.51 96 1012.3
20260506213109 9 251 1.6 3.2 0.00 0.51 0.51 97 1012.0
20260506212606 9 236 3.2 4.8 0.00 0.51 0.51 97 1011.8
20260506212100 9 256 3.2 3.2 0.00 0.51 0.51 97 1011.7
20260506211556 10 257 1.6 1.6 0.00 0.51 0.51 97 1011.7
20260506211054 9 276 0.0 1.6 0.00 0.51 0.51 98 1011.6
20260506210550 9 253 1.6 1.6 0.00 0.51 0.51 98 1011.8
20260506210047 9 266 1.6 3.2 0.00 0.51 0.51 98 1011.5
20260506205544 9 282 1.6 1.6 0.00 0.51 0.51 98 1011.2
20260506205039 9 265 0.0 0.0 0.00 0.51 0.51 98 1011.5
20260506204537 9 256 1.6 1.6 0.00 0.51 0.51 98 1011.3
20260506204034 9 270 0.0 0.0 0.00 0.51 0.51 98 1011.1
20260506203532 9 310 1.6 1.6 0.00 0.51 0.51 98 1011.2
20260506203028 10 261 0.0 1.6 0.00 0.51 0.51 99 1011.0
20260506202526 9 232 1.6 3.2 0.00 0.51 0.51 99 1011.0
20260506202022 9 277 1.6 1.6 0.00 0.51 0.51 99 1011.1
20260506201520 9 262 0.0 1.6 0.00 0.51 0.51 99 1011.1
20260506201016 9 307 1.6 1.6 0.00 0.51 0.51 99 1011.2
20260506200512 9 308 1.6 3.2 0.00 0.51 0.51 99 1011.6
20260506200009 9 329 3.2 8.0 0.00 0.51 0.51 99 1011.2
20260506195506 9 257 0.0 1.6 0.00 0.51 0.51 99 1011.5
20260506195003 9 259 9.7 11.3 0.00 0.51 0.51 99 1011.1
20260506194500 9 278 1.6 3.2 0.00 0.51 0.51 99 1011.2
20260506193956 9 239 1.6 3.2 0.00 0.51 0.51 99 1011.0
20260506193453 9 258 1.6 1.6 0.00 0.51 0.51 99 1011.1
20260506192945 9 273 1.6 3.2 0.00 0.51 0.51 99 1011.0
20260506192442 9 265 1.6 1.6 0.00 0.51 0.51 99 1011.1
20260506191938 9 193 8.0 9.7 0.00 0.51 0.51 99 1011.1
20260506191435 9 258 6.4 9.7 0.00 0.51 0.51 99 1011.0
20260506190931 10 274 3.2 3.2 0.00 0.51 0.51 99 1011.2
20260506190428 10 264 1.6 1.6 0.00 0.51 0.51 99 1011.0
20260506185925 9 250 4.8 4.8 0.00 0.51 0.51 99 1010.9
20260506185422 10 258 3.2 4.8 0.00 0.51 0.51 99 1010.9
20260506184919 10 262 1.6 1.6 0.00 0.51 0.51 99 1010.9
20260506184416 10 267 1.6 1.6 0.00 0.51 0.51 99 1010.8
20260506183914 10 243 3.2 4.8 0.00 0.51 0.51 99 1010.7
20260506183409 10 248 1.6 1.6 0.00 0.51 0.51 99 1010.7
20260506182906 10 257 1.6 1.6 0.00 0.51 0.51 99 1010.5
20260506182403 10 49 3.2 8.0 0.00 0.51 0.51 99 1010.6
20260506181900 10 18 4.8 8.0 0.00 0.51 0.51 99 1010.7
20260506181358 11 277 1.6 1.6 0.00 0.51 0.51 99 1010.4
20260506180855 11 275 1.6 1.6 0.00 0.51 0.51 99 1010.3
20260506180351 11 261 1.6 1.6 0.00 0.51 0.51 99 1010.5
20260506175848 11 283 0.0 0.0 0.00 0.51 0.51 99 1010.5
20260506175345 11 280 1.6 3.2 0.00 0.51 0.51 99 1010.4
20260506174842 12 201 6.4 8.0 0.00 0.51 0.51 99 1010.2
20260506174339 12 252 3.2 4.8 0.00 0.51 0.51 99 1010.0
20260506173837 12 275 1.6 1.6 0.00 0.51 0.51 99 1009.9
20260506173333 12 256 4.8 4.8 0.00 0.51 0.51 99 1010.0
20260506172830 12 261 3.2 3.2 0.00 0.51 0.51 99 1010.0
20260506172327 12 273 6.4 8.0 0.00 0.51 0.51 99 1009.7
20260506171824 12 221 4.8 4.8 0.00 0.51 0.51 99 1010.0
20260506171321 12 268 3.2 4.8 0.00 0.51 0.51 99 1010.2
20260506170819 12 224 3.2 4.8 0.00 0.51 0.51 99 1009.9
20260506170315 12 255 3.2 3.2 0.00 0.51 0.51 99 1009.7
20260506165814 12 249 1.6 1.6 0.00 0.51 0.51 99 1009.9
20260506165311 12 265 1.6 1.6 0.00 0.51 0.51 99 1009.6
20260506164808 12 9 4.8 8.0 0.00 0.51 0.51 99 1009.7